Regional Weather Roundup
Issued by NWS State College, PA

Home | Current Version | Previous Version | Graphics & Text | Print | Product List | Glossary Off
Versions: 1 2 3 4 5 6 7 8 9 10 11 12 13 14 15 16 17 18 19 20 21 22 23 24 25 26 27 28 29 30 31 32 33 34 35 36 37 38 39 40 41 42 43 44 45 46 47 48 49 50

000
ASUS41 KCTP 040110
RWRCTP

REGIONAL WEATHER ROUNDUP
NATIONAL WEATHER SERVICE STATE COLLEGE PA
900 PM EDT MON AUG 03 2015

Note: "fair" indicates few or no clouds below 12,000 feet with no
significant weather and/or obstructions to visibility.

* = STATION THAT DOES NOT REPORT PRECIPITATION /E.G. RAIN...SNOW...ETC/
    THUNDER OR FOG.

PAZ002>004-007>009-013>016-020>023-029>032-040200-
WESTERN PENNSYLVANIA

CITY           SKY/WX    TMP DP  RH WIND       PRES   REMARKS
ERIE           PTCLDY    71  61  70 S5        29.81R
MEADVILLE      LGT RAIN  72  54  53 CALM      29.83S
FRANKLIN*      CLEAR     68  57  68 CALM      29.85S
NEW CASTLE     FAIR      74  66  75 CALM      29.83R
BEAVER COUNTY  NOT AVBL
BUTLER*        CLOUDY    66  61  82 S9        29.86R THUNDER
PITTSBURGH INT MOCLDY    67  63  87 S5        29.83R THUNDER
PITTSBURGH     CLOUDY    68  63  84 SE7       29.83F
INDIANA*       NOT AVBL
LATROBE        MOCLDY    68  68 100 CALM      29.85F
WASHINGTON CO* NOT AVBL
$$

PAZ004>006-010>012-017>019-024>028-033>037-041-042-045-046-049>053-040200-
CENTRAL PENNSYLVANIA

CITY           SKY/WX    TMP DP  RH WIND       PRES   REMARKS
BRADFORD       CLOUDY    70  59  68 CALM      29.86R
DUBOIS         MOCLDY    67  64  90 CALM      29.86R FOG
CLEARFIELD     MOCLDY    71  62  73 SW7       29.85S
JOHNSTOWN      CLOUDY    70  61  73 SW9       29.90R
ALTOONA        CLOUDY    72  63  73 SW5       29.87R
STATE COLLEGE  CLEAR     72  63  73 SW8       29.84R
WILLIAMSPORT   CLOUDY    81  58  45 SW8       29.78R
SELINSGROVE    CLOUDY    75  65  70 S3        29.79S
FT INDIANTOWN  CLOUDY    73  69  87 E2        29.80S
CAPITAL CITY   MOCLDY    82  62  50 S5        29.79S
HARRISBURG     MOCLDY    83  62  49 VRB5      29.79R
YORK           PTCLDY    78  64  61 S5        29.81S
$$

PAZ038>040-043-044-047-048-054-055-060>062-067>071-040200-
EASTERN PENNSYLVANIA

CITY           SKY/WX    TMP DP  RH WIND       PRES   REMARKS
SCRANTON       PTCLDY    79  61  53 SW5       29.81R
MOUNT POCONO   CLEAR     72  62  71 W5        29.87R
ALLENTOWN      CLEAR     72  67  84 CALM      29.80S
QUAKERTOWN*    CLEAR     77  64  65 CALM      29.83R
READING        TSTM      81  65  58 NW7       29.80R
LANCASTER      PTCLDY    80  65  59 S8        29.81R
COATESVILLE    CLEAR     77  66  69 CALM      29.84R
POTTSTOWN      CLEAR     78  65  63 S3        29.83S
BLUE BELL      CLEAR     81  64  57 SW3       29.81S
DOYLESTOWN     CLEAR     78  61  55 CALM      29.81S
WILLOW GROVE   NOT AVBL
NORTH PHILA    CLEAR     86  59  39 SW12      29.81S
PHILADELPHIA   PTCLDY    85  65  51 S9        29.81R
$$


USA.gov is the U.S. government's official web portal to all federal, state and local government web resources and services.